Вернуться в каталог

STARLINK-36069

АктивенСвязьVLEO
NORAD 66806·PAYLOAD·🇺🇸 United States

Запущен Dec 1, 2025 с Cape Canaveral Space Force Station

Loading…

Ближайшие Пролёты (ближайшие 24 часа)

TLE

СвежийSource: CelesTrak SupGP

Эпоха: Sep 15, 2026, 03:46 UTC

1 66806C 25278R   26258.15743056  .00045021  00000+0  16314-2 0  2580
2 66806  43.0006 124.7002 0001625 271.9449  19.3834 15.27540208    10

Отслеживайте STARLINK-36069 в реальном времени с AllMySat

Download on the App Store